This is the latest recevied weather packets stored in our database for station/object N0QWM. If no packets are shown the sender has not sent any weather packets the latest 10 day(s).
| Time | Temp. | Humidity | Pressure | Rain* | Wind** | Luminosity | Snow |
|---|---|---|---|---|---|---|---|
| 1788305824 | 33.33° C | 56% | 1021.9 hPa | 0 mm | - | 18 W/m² | - |
| 1788305520 | 33.33° C | 56% | 1022.1 hPa | 0 mm | - | 20 W/m² | - |
| 1788305215 | 33.89° C | 55% | 1021.9 hPa | 0 mm | - | 23 W/m² | - |
| 1788304911 | 33.89° C | 55% | 1022.1 hPa | 0 mm | - | 26 W/m² | - |
| 1788304607 | 33.89° C | 54% | 1022.1 hPa | 0 mm | - | 28 W/m² | - |
| 1788304303 | 33.89° C | 53% | 1022 hPa | 0 mm | - | 31 W/m² | - |
| 1788303999 | 34.44° C | 53% | 1022.1 hPa | 0 mm | - | 32 W/m² | - |
| 1788303698 | 34.44° C | 52% | 1022.1 hPa | 0 mm | - | 35 W/m² | - |
| 1788303393 | 34.44° C | 51% | 1022 hPa | 0 mm | - | 40 W/m² | - |
| 1788303093 | 35° C | 52% | 1021.8 hPa | 0 mm | - | 42 W/m² | - |
| 1788302790 | 35° C | 51% | 1021.9 hPa | 0 mm | - | 45 W/m² | - |
| 1788302486 | 35° C | 52% | 1021.9 hPa | 0 mm | - | 58 W/m² | - |
| 1788302181 | 35° C | 52% | 1021.9 hPa | 0 mm | - | 55 W/m² | - |
| 1788301876 | 35° C | 51% | 1021.7 hPa | 0 mm | - | 47 W/m² | - |
| 1788301572 | 35° C | 52% | 1022 hPa | 0 mm | - | 75 W/m² | - |
| 1788301268 | 35° C | 50% | 1021.9 hPa | 0 mm | - | 49 W/m² | - |
| 1788300964 | 35.56° C | 50% | 1021.7 hPa | 0 mm | - | 49 W/m² | - |
| 1788300660 | 35° C | 51% | 1021.9 hPa | 0 mm | - | 50 W/m² | - |
| 1788300358 | 35° C | 50% | 1021.6 hPa | 0 mm | - | 209 W/m² | - |
| 1788300057 | 36.11° C | 48% | 1021.8 hPa | 0 mm | - | 216 W/m² | - |
| 1788299755 | 36.67° C | 47% | 1021.7 hPa | 0 mm | - | 222 W/m² | - |
| 1788299451 | 36.11° C | 48% | 1021.7 hPa | 0 mm | - | 71 W/m² | - |
| 1788299150 | 36.11° C | 48% | 1021.9 hPa | 0 mm | - | 65 W/m² | - |
| 1788298844 | 36.11° C | 48% | 1022 hPa | 0 mm | - | 62 W/m² | - |
| 1788298544 | 35.56° C | 49% | 1022 hPa | 0 mm | - | 98 W/m² | - |
* Rain latest hour (hover to see other rain measurements)
** Current wind speed in m/s (hover to see current wind gust speed)